| time (UTC) | temp C | wind direction | speed KPH | gust KPH | rain 1hr cm | rain 24hr cm | rain mn cm | humidity % | barometer mb |
| 20260902110036 | 20 | 307 | 3.2 | 16.1 | 0.00 | 0.05 | 0.00 | 62 | 1017.8 |
| 20260902104543 | 20 | 229 | 3.2 | 12.9 | 0.00 | 0.08 | 0.00 | 62 | 1017.8 |
| 20260902103044 | 21 | 240 | 6.4 | 14.5 | 0.00 | 0.08 | 0.00 | 61 | 1017.9 |
| 20260902101522 | 20 | 200 | 3.2 | 17.7 | 0.00 | 0.08 | 0.00 | 64 | 1017.9 |
| 20260902100021 | 20 | 190 | 12.9 | 24.1 | 0.00 | 0.08 | 0.00 | 65 | 1018.0 |
| 20260902094519 | 20 | 281 | 8.0 | 20.9 | 0.00 | 0.08 | 0.00 | 66 | 1018.1 |
| 20260902093020 | 20 | 201 | 4.8 | 22.5 | 0.00 | 0.08 | 0.00 | 67 | 1018.1 |
| 20260902091517 | 20 | 207 | 8.0 | 16.1 | 0.00 | 0.08 | 0.00 | 70 | 1018.2 |
| 20260902090024 | 20 | 190 | 8.0 | 14.5 | 0.00 | 0.08 | 0.00 | 71 | 1018.2 |
| 20260902084512 | 18 | 199 | 4.8 | 14.5 | 0.00 | 0.08 | 0.00 | 73 | 1018.2 |
| 20260902083010 | 18 | 221 | 3.2 | 12.9 | 0.00 | 0.08 | 0.00 | 73 | 1018.2 |
| 20260902081510 | 18 | 267 | 4.8 | 16.1 | 0.00 | 0.08 | 0.00 | 72 | 1018.4 |
| 20260902080007 | 18 | 260 | 4.8 | 9.7 | 0.00 | 0.08 | 0.00 | 74 | 1018.3 |
| 20260902074504 | 18 | 205 | 1.6 | 8.0 | 0.00 | 0.08 | 0.00 | 75 | 1018.2 |
| 20260902073001 | 17 | 169 | 1.6 | 8.0 | 0.00 | 0.08 | 0.00 | 77 | 1018.1 |
| 20260902071557 | 17 | 227 | 1.6 | 6.4 | 0.00 | 0.08 | 0.00 | 80 | 1018.2 |
| 20260902070054 | 16 | 227 | 0.0 | 4.8 | 0.00 | 0.08 | 0.00 | 85 | 1018.0 |
| 20260902064602 | 15 | 227 | 0.0 | 8.0 | 0.00 | 0.08 | 0.00 | 88 | 1018.2 |
| 20260902063107 | 15 | 209 | 3.2 | 6.4 | 0.00 | 0.08 | 0.00 | 88 | 1018.3 |
| 20260902061611 | 14 | 211 | 1.6 | 4.8 | 0.00 | 0.08 | 0.00 | 90 | 1018.2 |
| 20260902060052 | 14 | 211 | 0.0 | 4.8 | 0.00 | 0.08 | 0.00 | 91 | 1018.2 |
| 20260902054553 | 13 | 244 | 0.0 | 4.8 | 0.00 | 0.08 | 0.00 | 93 | 1018.3 |
| 20260902053051 | 13 | 244 | 0.0 | 4.8 | 0.00 | 0.08 | 0.00 | 94 | 1018.1 |
| 20260902051602 | 12 | 244 | 0.0 | 4.8 | 0.00 | 0.08 | 0.00 | 94 | 1018.3 |
| 20260902050051 | 12 | 275 | 0.0 | 3.2 | 0.00 | 0.08 | 0.00 | 94 | 1018.3 |
| 20260902044606 | 12 | 276 | 0.0 | 6.4 | 0.00 | 0.08 | 0.00 | 94 | 1018.4 |
| 20260902043048 | 12 | 247 | 0.0 | 6.4 | 0.00 | 0.08 | 0.00 | 94 | 1018.4 |
| 20260902041546 | 12 | 244 | 1.6 | 6.4 | 0.00 | 0.08 | 0.00 | 94 | 1018.1 |
| 20260902040042 | 12 | 234 | 0.0 | 4.8 | 0.00 | 0.08 | 0.00 | 94 | 1017.8 |
| 20260902034540 | 13 | 227 | 1.6 | 6.4 | 0.00 | 0.08 | 0.00 | 94 | 1017.6 |
| 20260902033039 | 12 | 224 | 1.6 | 6.4 | 0.00 | 0.08 | 0.00 | 93 | 1017.5 |
| 20260902031552 | 13 | 205 | 1.6 | 4.8 | 0.00 | 0.08 | 0.00 | 94 | 1017.4 |
| 20260902030037 | 13 | 244 | 3.2 | 6.4 | 0.00 | 0.08 | 0.00 | 92 | 1017.4 |
| 20260902024542 | 13 | 244 | 0.0 | 4.8 | 0.00 | 0.08 | 0.00 | 92 | 1017.4 |
| 20260902023033 | 13 | 244 | 0.0 | 3.2 | 0.00 | 0.08 | 0.00 | 91 | 1017.4 |
| 20260902021531 | 13 | 244 | 0.0 | 3.2 | 0.00 | 0.08 | 0.00 | 91 | 1017.6 |
| 20260902020030 | 13 | 244 | 0.0 | 0.0 | 0.00 | 0.08 | 0.00 | 91 | 1017.6 |
| 20260902014536 | 13 | 244 | 0.0 | 0.0 | 0.00 | 0.08 | 0.00 | 91 | 1017.7 |
| 20260902013031 | 13 | 244 | 0.0 | 3.2 | 0.00 | 0.08 | 0.00 | 90 | 1017.7 |
| 20260902011530 | 13 | 244 | 0.0 | 3.2 | 0.00 | 0.08 | 0.00 | 90 | 1017.7 |
| 20260902010029 | 14 | 244 | 0.0 | 4.8 | 0.00 | 0.08 | 0.00 | 89 | 1017.7 |
| 20260902004523 | 14 | 268 | 0.0 | 6.4 | 0.00 | 0.08 | 0.00 | 89 | 1017.6 |
| 20260902003020 | 15 | 243 | 3.2 | 6.4 | 0.00 | 0.08 | 0.00 | 88 | 1017.5 |
| 20260902001518 | 15 | 238 | 0.0 | 9.7 | 0.00 | 0.08 | 0.00 | 88 | 1017.4 |
| 20260902000016 | 15 | 238 | 3.2 | 9.7 | 0.00 | 0.08 | 0.00 | 88 | 1017.3 |
| 20260901234514 | 15 | 225 | 3.2 | 8.0 | 0.00 | 0.08 | 0.00 | 88 | 1017.2 |
| 20260901233013 | 15 | 251 | 3.2 | 11.3 | 0.00 | 0.08 | 0.00 | 87 | 1017.1 |
| 20260901231516 | 15 | 247 | 1.6 | 8.0 | 0.00 | 0.08 | 0.00 | 86 | 1017.2 |
| 20260901230010 | 16 | 259 | 4.8 | 8.0 | 0.00 | 0.08 | 0.00 | 86 | 1017.2 |
| 20260901224512 | 16 | 242 | 3.2 | 8.0 | 0.00 | 0.08 | 0.00 | 86 | 1017.2 |
| 20260901223007 | 16 | 246 | 4.8 | 8.0 | 0.00 | 0.08 | 0.00 | 85 | 1017.1 |
| 20260901221506 | 16 | 234 | 1.6 | 8.0 | 0.00 | 0.08 | 0.00 | 85 | 1017.2 |
| 20260901220003 | 16 | 255 | 3.2 | 9.7 | 0.00 | 0.08 | 0.00 | 84 | 1017.1 |
| 20260901214501 | 16 | 240 | 3.2 | 11.3 | 0.00 | 0.08 | 0.08 | 83 | 1017.0 |
| 20260901213003 | 17 | 248 | 4.8 | 11.3 | 0.00 | 0.08 | 0.08 | 82 | 1017.0 |
| 20260901211503 | 17 | 240 | 3.2 | 9.7 | 0.00 | 0.08 | 0.08 | 81 | 1017.0 |
| 20260901204559 | 17 | 254 | 3.2 | 9.7 | 0.00 | 0.08 | 0.08 | 81 | 1016.7 |
| 20260901203059 | 17 | 242 | 1.6 | 9.7 | 0.00 | 0.08 | 0.08 | 80 | 1016.7 |
| 20260901201558 | 17 | 222 | 3.2 | 8.0 | 0.00 | 0.08 | 0.08 | 77 | 1016.8 |
| 20260901200057 | 18 | 240 | 4.8 | 9.7 | 0.00 | 0.08 | 0.08 | 74 | 1016.7 |
| 20260901194602 | 18 | 248 | 3.2 | 12.9 | 0.00 | 0.48 | 0.08 | 73 | 1016.6 |
| 20260901193056 | 18 | 251 | 1.6 | 8.0 | 0.00 | 0.48 | 0.08 | 72 | 1016.7 |
| 20260901191554 | 19 | 244 | 1.6 | 11.3 | 0.00 | 0.48 | 0.08 | 71 | 1016.5 |
| 20260901190054 | 19 | 250 | 4.8 | 8.0 | 0.00 | 0.48 | 0.08 | 70 | 1016.5 |
| 20260901184557 | 20 | 260 | 3.2 | 14.5 | 0.00 | 0.51 | 0.08 | 70 | 1016.5 |
| 20260901183114 | 20 | 237 | 3.2 | 9.7 | 0.00 | 0.51 | 0.08 | 69 | 1016.2 |
| 20260901181547 | 20 | 249 | 1.6 | 8.0 | 0.00 | 0.51 | 0.08 | 67 | 1015.8 |
| 20260901180047 | 20 | 322 | 6.4 | 12.9 | 0.00 | 0.51 | 0.08 | 68 | 1015.7 |
| 20260901174547 | 20 | 301 | 4.8 | 8.0 | 0.00 | 0.51 | 0.08 | 69 | 1015.5 |
| 20260901173057 | 21 | 292 | 3.2 | 9.7 | 0.00 | 0.51 | 0.08 | 68 | 1015.4 |
| 20260901171553 | 21 | 263 | 0.0 | 4.8 | 0.00 | 0.51 | 0.08 | 69 | 1015.2 |
| 20260901170053 | 21 | 262 | 1.6 | 11.3 | 0.00 | 0.51 | 0.08 | 67 | 1015.2 |
| 20260901164546 | 21 | 279 | 3.2 | 11.3 | 0.00 | 0.51 | 0.08 | 66 | 1015.2 |
| 20260901163104 | 22 | 268 | 6.4 | 14.5 | 0.00 | 0.51 | 0.08 | 66 | 1015.2 |
| 20260901161550 | 22 | 278 | 4.8 | 11.3 | 0.00 | 0.51 | 0.08 | 66 | 1015.1 |
| 20260901160043 | 22 | 254 | 4.8 | 8.0 | 0.00 | 0.51 | 0.08 | 66 | 1015.1 |
| 20260901154547 | 22 | 281 | 1.6 | 6.4 | 0.03 | 0.51 | 0.08 | 69 | 1015.2 |
| 20260901153041 | 21 | 251 | 4.8 | 14.5 | 0.03 | 0.51 | 0.08 | 68 | 1015.3 |
| 20260901151550 | 20 | 282 | 4.8 | 14.5 | 0.03 | 0.51 | 0.08 | 71 | 1015.2 |
| 20260901150044 | 20 | 294 | 3.2 | 14.5 | 0.03 | 0.51 | 0.08 | 71 | 1015.2 |
| 20260901144538 | 21 | 284 | 4.8 | 14.5 | 0.00 | 0.48 | 0.05 | 65 | 1015.3 |
| 20260901143041 | 21 | 312 | 4.8 | 17.7 | 0.00 | 0.48 | 0.05 | 64 | 1015.2 |
| 20260901141544 | 21 | 287 | 1.6 | 12.9 | 0.03 | 0.48 | 0.05 | 69 | 1015.3 |
| 20260901140037 | 20 | 309 | 3.2 | 8.0 | 0.03 | 0.48 | 0.05 | 73 | 1015.3 |
| 20260901134537 | 20 | 296 | 3.2 | 14.5 | 0.03 | 0.48 | 0.05 | 70 | 1015.4 |
| 20260901133044 | 21 | 308 | 6.4 | 17.7 | 0.03 | 0.48 | 0.05 | 67 | 1015.5 |
| 20260901131540 | 22 | 294 | 8.0 | 20.9 | 0.00 | 0.46 | 0.03 | 60 | 1015.4 |
| 20260901130034 | 22 | 268 | 8.0 | 24.1 | 0.00 | 0.46 | 0.03 | 60 | 1015.3 |
| 20260901124532 | 22 | 314 | 6.4 | 27.4 | 0.00 | 0.46 | 0.03 | 64 | 1015.4 |
| 20260901123036 | 21 | 241 | 16.1 | 30.6 | 0.00 | 0.46 | 0.03 | 63 | 1015.5 |
| 20260901121529 | 21 | 247 | 8.0 | 24.1 | 0.00 | 0.46 | 0.03 | 62 | 1015.5 |
| 20260901120028 | 21 | 256 | 16.1 | 27.4 | 0.00 | 0.46 | 0.03 | 60 | 1015.5 |
| 20260901114528 | 21 | 333 | 11.3 | 27.4 | 0.00 | 0.46 | 0.03 | 61 | 1015.5 |
| 20260901113024 | 21 | 269 | 6.4 | 19.3 | 0.03 | 0.46 | 0.03 | 66 | 1015.6 |
| 20260901111523 | 20 | 298 | 8.0 | 27.4 | 0.03 | 0.46 | 0.03 | 69 | 1015.7 |